Location: East Horndon
(51.5667°N, 0.3500°E)
Time: 06:42:59
(UTC+00:00)

Meteor 2-5 Rocket - Pass Details

Date: 08 November 2025
Orbit: 832 x 911 km, 81.2° (Epoch: 11 December)

Event Time Altitude Azimuth Distance (km) Brightness Sun altitude
Rises 05:36:06 0° 205° (SSW) 3,528 6.8 -13.9°
Reaches altitude 10° 05:38:38 10° 210° (SSW) 2,586 6.0 -13.5°
Maximum altitude 05:44:25 56° 288° (WNW) 1,067 3.9 -12.7°
Drops below altitude 10° 05:50:11 10° 6° (N) 2,565 6.2 -11.8°
Sets 05:52:41 0° 11° (N) 3,497 6.9 -11.4°
